77.4010;-165.4130;1; 366.164; 199.784;1962.05.08 12:00:00; -20.4;1023.1;   3.0; 315.0;    .000;    .000;   0.000; 90;
77.3949;-165.4207;2; 366.233; 199.785;1962.05.08 18:00:00; -17.6;1023.6;   2.0; 338.0;    .705;    .250;   0.118;195;
77.3887;-165.4283;2; 366.303; 199.785;1962.05.09 00:00:00; -15.5;1024.1;   3.0; 360.0;   1.412;    .500;   0.118;195;
77.3826;-165.4359;2; 366.372; 199.786;1962.05.09 06:00:00; -16.2;1024.2;   4.0; 338.0;   2.117;    .750;   0.118;195;
77.3765;-165.4435;2; 366.441; 199.787;1962.05.09 12:00:00; -17.5;1025.7;   3.0; 292.0;   2.823;   1.000;   0.118;195;
77.3704;-165.4512;2; 366.510; 199.788;1962.05.09 18:00:00; -18.3;1026.5;   0.0;   0.0;   3.529;   1.250;   0.118;195;
77.3643;-165.4588;2; 366.580; 199.789;1962.05.10 00:00:00; -17.2;1027.6;   2.0; 338.0;   4.235;   1.500;   0.118;195;
77.3581;-165.4664;2; 366.649; 199.789;1962.05.10 06:00:00; -18.2;1028.6;   2.0; 292.0;   4.940;   1.750;   0.118;195;
77.3520;-165.4740;2; 366.718; 199.790;1962.05.10 12:00:00; -21.8;1029.0;   2.0; 338.0;   5.647;   2.000;   0.118;195;
77.3504;-165.4927;2; 366.746; 199.829;1962.05.10 18:00:00; -21.0;1029.4;   1.0; 360.0;   6.135;   2.250;   0.081;249;
77.3488;-165.5114;2; 366.774; 199.868;1962.05.11 00:00:00; -16.4;1029.4;   2.0; 360.0;   6.622;   2.500;   0.081;249;
77.3473;-165.5301;2; 366.802; 199.907;1962.05.11 06:00:00; -17.4;1028.4;   1.0; 360.0;   7.110;   2.750;   0.081;249;
77.3457;-165.5487;2; 366.830; 199.946;1962.05.11 12:00:00; -21.7;1028.7;   2.0; 360.0;   7.598;   3.000;   0.081;249;
77.3441;-165.5674;2; 366.858; 199.985;1962.05.11 18:00:00; -19.8;1028.1;   0.0;   0.0;   8.086;   3.250;   0.081;249;
77.3425;-165.5861;2; 366.885; 200.024;1962.05.12 00:00:00; -15.6;1026.6;   2.0; 360.0;   8.573;   3.500;   0.081;249;
77.3409;-165.6047;2; 366.913; 200.063;1962.05.12 06:00:00; -16.6;1026.1;   2.0; 360.0;   9.061;   3.750;   0.081;249;
77.3393;-165.6234;2; 366.941; 200.102;1962.05.12 12:00:00; -21.1;1026.1;   3.0;  22.0;   9.549;   4.000;   0.081;249;
77.3378;-165.6421;2; 366.969; 200.141;1962.05.12 18:00:00; -20.2;1026.3;   0.0;   0.0;  10.036;   4.250;   0.081;249;
77.3362;-165.6607;2; 366.997; 200.180;1962.05.13 00:00:00; -15.6;1026.8;   2.0;  22.0;  10.524;   4.500;   0.081;249;
77.3346;-165.6794;2; 367.025; 200.219;1962.05.13 06:00:00; -16.8;1026.9;   2.0;  22.0;  11.012;   4.750;   0.081;249;
77.3330;-165.6980;2; 367.053; 200.257;1962.05.13 12:00:00; -21.5;1027.2;   3.0; 360.0;  11.499;   5.000;   0.081;249;
77.3380;-165.7844;2; 367.050; 200.471;1962.05.13 18:00:00; -19.1;1026.2;   3.0; 360.0;  13.679;   5.250;   0.363;285;
77.3431;-165.8709;2; 367.048; 200.685;1962.05.14 00:00:00; -14.0;1026.2;   5.0; 338.0;  15.859;   5.500;   0.363;285;
77.3480;-165.9574;2; 367.045; 200.899;1962.05.14 06:00:00; -12.9;1024.7;   5.0; 338.0;  18.038;   5.750;   0.363;285;
77.3530;-166.0440;2; 367.043; 201.113;1962.05.14 12:00:00; -15.4;1024.2;   3.0; 360.0;  20.218;   6.000;   0.363;285;
77.3553;-166.0685;2; 367.032; 201.176;1962.05.14 18:00:00; -16.0;1023.0;   5.0;  22.0;  20.870;   6.250;   0.109;294;
77.3577;-166.0931;2; 367.021; 201.240;1962.05.15 00:00:00; -14.5;1022.2;   4.0;  68.0;  21.521;   6.500;   0.109;294;
77.3600;-166.1176;2; 367.011; 201.303;1962.05.15 06:00:00; -13.9;1020.9;   3.0;  90.0;  22.173;   6.750;   0.109;294;
77.3624;-166.1422;2; 367.000; 201.366;1962.05.15 12:00:00; -12.9;1020.1;   4.0;  90.0;  22.825;   7.000;   0.109;294;
77.3647;-166.1667;2; 366.989; 201.429;1962.05.15 18:00:00; -13.1;1018.5;   6.0;  90.0;  23.477;   7.250;   0.109;293;
77.3670;-166.1913;2; 366.979; 201.492;1962.05.16 00:00:00; -12.2;1017.6;   9.0;  90.0;  24.128;   7.500;   0.109;293;
77.3694;-166.2159;2; 366.968; 201.555;1962.05.16 06:00:00; -11.8;1017.1;   9.0;  90.0;  24.780;   7.750;   0.109;293;
77.3717;-166.2405;2; 366.957; 201.618;1962.05.16 12:00:00; -13.1;1017.8;   9.0;  90.0;  25.432;   8.000;   0.109;293;
77.3740;-166.2651;2; 366.946; 201.681;1962.05.16 18:00:00; -15.7;1017.0;  10.0;  68.0;  26.083;   8.250;   0.109;293;
77.3764;-166.2897;2; 366.936; 201.744;1962.05.17 00:00:00; -12.5;1017.3;   9.0;  90.0;  26.735;   8.500;   0.109;293;
77.3787;-166.3144;2; 366.925; 201.807;1962.05.17 06:00:00; -12.3;1017.8;  10.0;  68.0;  27.387;   8.750;   0.109;293;
77.3810;-166.3390;2; 366.914; 201.870;1962.05.17 12:00:00; -15.5;1019.1;   8.0;  68.0;  28.038;   9.000;   0.109;293;
77.3883;-166.4286;2; 366.887; 202.097;1962.05.17 18:00:00; -15.5;1017.7;   9.0;  45.0;  30.361;   9.250;   0.387;290;
77.3956;-166.5183;2; 366.860; 202.323;1962.05.18 00:00:00; -12.9;1016.3;  10.0;  68.0;  32.683;   9.500;   0.387;290;
77.4028;-166.6081;2; 366.833; 202.549;1962.05.18 06:00:00; -10.8;1015.1;   9.0;  68.0;  35.005;   9.750;   0.387;290;
77.4100;-166.6980;2; 366.806; 202.776;1962.05.18 12:00:00;  -9.9;1015.3;   5.0;  90.0;  37.327;  10.000;   0.387;290;
77.4277;-166.8000;2; 366.673; 203.056;1962.05.18 18:00:00;  -8.9;1012.2;   8.0;  90.0;  40.487;  10.250;   0.527;309;
77.4454;-166.9023;2; 366.540; 203.336;1962.05.19 00:00:00;  -5.7;1010.3;   8.0;  90.0;  43.648;  10.500;   0.527;308;
77.4631;-167.0048;2; 366.408; 203.617;1962.05.19 06:00:00;  -4.8;1006.2;   9.0;  90.0;  46.808;  10.750;   0.527;308;
77.4807;-167.1077;2; 366.275; 203.897;1962.05.19 12:00:00;  -6.8;1007.1;   0.0;   0.0;  49.968;  11.000;   0.527;308;
77.4982;-167.2108;2; 366.142; 204.177;1962.05.19 18:00:00;  -5.3;1005.4;   0.0;   0.0;  53.127;  11.250;   0.527;308;
77.5157;-167.3143;2; 366.010; 204.458;1962.05.20 00:00:00;  -4.7;1005.9;   5.0; 202.0;  56.287;  11.500;   0.527;308;
77.5332;-167.4180;2; 365.877; 204.738;1962.05.20 06:00:00;  -7.2;1009.8;   4.0; 225.0;  59.448;  11.750;   0.527;308;
77.5507;-167.5220;2; 365.744; 205.018;1962.05.20 12:00:00;  -6.9;1012.8;   5.0; 225.0;  62.607;  12.000;   0.527;308;
77.5680;-167.6263;2; 365.612; 205.299;1962.05.20 18:00:00;  -8.2;1015.6;   6.0; 202.0;  65.767;  12.250;   0.527;308;
77.5854;-167.7309;2; 365.479; 205.579;1962.05.21 00:00:00;  -8.0;1017.5;   5.0; 225.0;  68.928;  12.500;   0.527;308;
77.6027;-167.8358;2; 365.346; 205.859;1962.05.21 06:00:00; -10.1;1018.1;   6.0; 225.0;  72.088;  12.750;   0.527;308;
77.6200;-167.9410;2; 365.214; 206.140;1962.05.21 12:00:00; -12.4;1019.4;   3.0; 202.0;  75.248;  13.000;   0.527;307;
77.6297;-167.9928;2; 365.136; 206.280;1962.05.21 18:00:00; -12.7;1018.7;   4.0; 202.0;  76.885;  13.250;   0.273;311;
77.6393;-168.0448;2; 365.058; 206.421;1962.05.22 00:00:00; -12.0;1017.8;   3.0; 202.0;  78.522;  13.500;   0.273;311;
77.6489;-168.0968;2; 364.980; 206.561;1962.05.22 06:00:00;  -9.9;1016.2;   3.0; 248.0;  80.159;  13.750;   0.273;311;
77.6586;-168.1488;2; 364.902; 206.702;1962.05.22 12:00:00; -10.6;1014.9;   3.0; 225.0;  81.796;  14.000;   0.273;311;
77.6682;-168.2010;2; 364.825; 206.842;1962.05.22 18:00:00; -10.7;1014.1;   3.0; 270.0;  83.433;  14.250;   0.273;311;
77.6778;-168.2533;2; 364.747; 206.983;1962.05.23 00:00:00; -10.4;1014.2;   4.0; 315.0;  85.071;  14.500;   0.273;311;
77.6874;-168.3056;2; 364.669; 207.123;1962.05.23 06:00:00; -11.3;1014.4;   4.0; 292.0;  86.707;  14.750;   0.273;311;
77.6970;-168.3580;2; 364.591; 207.264;1962.05.23 12:00:00; -11.5;1015.8;   5.0; 292.0;  88.344;  15.000;   0.273;311;
77.7125;-168.3612;2; 364.427; 207.305;1962.05.23 18:00:00;  -9.3;1016.3;   5.0; 270.0;  90.070;  15.250;   0.288;357;
77.7280;-168.3645;2; 364.263; 207.347;1962.05.24 00:00:00;  -7.6;1017.6;   2.0; 270.0;  91.795;  15.500;   0.287;357;
77.7435;-168.3677;2; 364.099; 207.388;1962.05.24 06:00:00; -11.6;1017.2;   3.0; 135.0;  93.520;  15.750;   0.288;357;
77.7590;-168.3710;2; 363.935; 207.430;1962.05.24 12:00:00; -10.7;1016.9;   5.0; 112.0;  95.246;  16.000;   0.288;357;
77.7643;-168.3689;2; 363.878; 207.437;1962.05.24 18:00:00;  -9.2;1017.3;   6.0; 158.0;  95.832;  16.250;   0.098;  5;
77.7695;-168.3669;2; 363.821; 207.444;1962.05.25 00:00:00;  -5.4;1017.4;   4.0; 202.0;  96.417;  16.500;   0.098;  5;
77.7747;-168.3648;2; 363.764; 207.450;1962.05.25 06:00:00;  -7.5;1018.4;   6.0; 135.0;  97.003;  16.750;   0.098;  5;
77.7800;-168.3627;2; 363.707; 207.457;1962.05.25 12:00:00;  -8.1;1016.7;  12.0; 135.0;  97.589;  17.000;   0.098;  5;
77.7852;-168.3606;2; 363.650; 207.464;1962.05.25 18:00:00;  -7.3;1013.8;   8.0; 158.0;  98.174;  17.250;   0.098;  5;
77.7905;-168.3585;2; 363.593; 207.471;1962.05.26 00:00:00;  -5.3;1012.4;   4.0; 248.0;  98.760;  17.500;   0.098;  5;
77.7958;-168.3564;2; 363.535; 207.478;1962.05.26 06:00:00;  -5.7;1012.6;   4.0; 180.0;  99.347;  17.750;   0.098;  5;
77.8010;-168.3544;2; 363.478; 207.485;1962.05.26 12:00:00;  -7.4;1013.6;   5.0; 202.0;  99.932;  18.000;   0.098;  5;
77.8063;-168.3523;2; 363.421; 207.491;1962.05.26 18:00:00;  -7.4;1014.4;   4.0; 225.0; 100.518;  18.250;   0.098;  5;
77.8115;-168.3502;2; 363.364; 207.498;1962.05.27 00:00:00;  -8.7;1014.9;   7.0; 225.0; 101.104;  18.500;   0.098;  5;
77.8167;-168.3481;2; 363.307; 207.505;1962.05.27 06:00:00;  -9.0;1015.2;   5.0; 225.0; 101.690;  18.750;   0.098;  5;
77.8220;-168.3460;2; 363.250; 207.512;1962.05.27 12:00:00;  -9.5;1016.0;   6.0; 202.0; 102.275;  19.000;   0.098;  5;
77.8423;-168.2639;2; 362.995; 207.372;1962.05.27 18:00:00; -10.3;1016.7;   7.0; 225.0; 105.241;  19.250;   0.494; 40;
77.8625;-168.1815;2; 362.740; 207.232;1962.05.28 00:00:00; -10.8;1017.6;   7.0; 202.0; 108.205;  19.500;   0.494; 41;
77.8828;-168.0989;2; 362.485; 207.092;1962.05.28 06:00:00; -10.5;1018.1;   6.0; 225.0; 111.170;  19.750;   0.494; 41;
77.9030;-168.0160;2; 362.230; 206.952;1962.05.28 12:00:00; -11.2;1019.1;   7.0; 202.0; 114.135;  20.000;   0.494; 41;
77.9140;-167.9630;2; 362.088; 206.859;1962.05.28 18:00:00; -10.8;1019.2;   8.0; 158.0; 115.870;  20.250;   0.289; 45;
77.9249;-167.9100;2; 361.946; 206.765;1962.05.29 00:00:00;  -9.0;1018.2;   9.0; 158.0; 117.606;  20.500;   0.289; 45;
77.9359;-167.8568;2; 361.804; 206.672;1962.05.29 06:00:00;  -8.0;1017.9;   9.0; 158.0; 119.341;  20.750;   0.289; 45;
77.9468;-167.8035;2; 361.662; 206.579;1962.05.29 12:00:00;  -7.4;1017.7;   8.0; 158.0; 121.076;  21.000;   0.289; 45;
77.9578;-167.7502;2; 361.519; 206.485;1962.05.29 18:00:00;  -6.6;1018.2;   8.0; 180.0; 122.812;  21.250;   0.289; 46;
77.9687;-167.6967;2; 361.377; 206.392;1962.05.30 00:00:00;  -5.2;1019.1;   5.0; 180.0; 124.546;  21.500;   0.289; 46;
77.9796;-167.6432;2; 361.235; 206.298;1962.05.30 06:00:00;  -5.0;1020.4;   4.0; 180.0; 126.282;  21.750;   0.289; 46;
77.9905;-167.5896;2; 361.093; 206.205;1962.05.30 12:00:00;  -5.4;1022.0;   3.0; 158.0; 128.017;  22.000;   0.289; 46;
78.0014;-167.5358;2; 360.951; 206.111;1962.05.30 18:00:00;  -5.1;1023.1;   3.0; 158.0; 129.752;  22.250;   0.289; 46;
78.0123;-167.4820;2; 360.808; 206.018;1962.05.31 00:00:00;  -4.0;1023.9;   2.0; 135.0; 131.487;  22.500;   0.289; 46;
78.0231;-167.4280;2; 360.666; 205.924;1962.05.31 06:00:00;  -4.9;1024.0;   4.0; 158.0; 133.223;  22.750;   0.289; 46;
78.0340;-167.3740;2; 360.524; 205.831;1962.05.31 12:00:00;  -6.1;1024.1;   4.0; 158.0; 134.958;  23.000;   0.289; 46;
78.0518;-167.3586;2; 360.328; 205.839;1962.05.31 18:00:00;  -7.7;1023.6;   9.0; 135.0; 136.964;  23.250;   0.334; 10;
78.0695;-167.3431;2; 360.131; 205.848;1962.06.01 00:00:00;  -7.3;1023.5;   7.0; 135.0; 138.970;  23.500;   0.334; 10;
78.0872;-167.3276;2; 359.935; 205.856;1962.06.01 06:00:00;  -7.8;1023.2;   7.0; 135.0; 140.975;  23.750;   0.334; 10;
78.1050;-167.3120;2; 359.738; 205.864;1962.06.01 12:00:00;  -9.2;1022.6;   5.0;  90.0; 142.981;  24.000;   0.334; 10;
78.1153;-167.3319;2; 359.639; 205.932;1962.06.01 18:00:00;  -8.4;1022.0;   5.0;  90.0; 144.209;  24.250;   0.205;338;
78.1255;-167.3518;2; 359.540; 206.001;1962.06.02 00:00:00;  -7.8;1020.6;   3.0; 135.0; 145.437;  24.500;   0.205;338;
78.1358;-167.3718;2; 359.440; 206.069;1962.06.02 06:00:00; -10.3;1017.0;   5.0; 135.0; 146.666;  24.750;   0.205;338;
78.1460;-167.3918;2; 359.341; 206.137;1962.06.02 12:00:00;  -9.2;1012.2;   6.0; 158.0; 147.893;  25.000;   0.205;338;
78.1563;-167.4118;2; 359.242; 206.205;1962.06.02 18:00:00;  -8.4;1004.8;   9.0; 158.0; 149.123;  25.250;   0.205;338;
78.1665;-167.4319;2; 359.142; 206.273;1962.06.03 00:00:00;  -3.8; 999.8;   8.0; 202.0; 150.351;  25.500;   0.205;338;
78.1768;-167.4520;2; 359.043; 206.341;1962.06.03 06:00:00;  -4.8; 999.1;   5.0; 270.0; 151.579;  25.750;   0.205;338;
78.1870;-167.4721;2; 358.944; 206.409;1962.06.03 12:00:00;  -6.3; 998.7;   5.0; 248.0; 152.807;  26.000;   0.205;338;
78.1973;-167.4923;2; 358.845; 206.477;1962.06.03 18:00:00;  -4.8; 997.6;   7.0; 225.0; 154.036;  26.250;   0.205;338;
78.2075;-167.5125;2; 358.745; 206.546;1962.06.04 00:00:00;  -5.4; 998.3;   8.0; 248.0; 155.264;  26.500;   0.205;338;
78.2178;-167.5327;2; 358.646; 206.614;1962.06.04 06:00:00;  -6.5; 999.4;   5.0; 248.0; 156.492;  26.750;   0.205;338;
78.2280;-167.5530;2; 358.547; 206.682;1962.06.04 12:00:00;  -8.7;1001.3;   3.0; 225.0; 157.720;  27.000;   0.205;338;
78.2354;-167.5031;2; 358.444; 206.591;1962.06.04 18:00:00;  -8.0;1002.8;   7.0; 225.0; 159.120;  27.250;   0.233; 54;
78.2428;-167.4531;2; 358.341; 206.500;1962.06.05 00:00:00;  -7.0;1005.8;   6.0; 225.0; 160.519;  27.500;   0.233; 54;
78.2502;-167.4031;2; 358.238; 206.409;1962.06.05 06:00:00;  -6.5;1008.7;   5.0; 202.0; 161.919;  27.750;   0.233; 54;
78.2576;-167.3530;2; 358.136; 206.318;1962.06.05 12:00:00;  -7.5;1011.2;   5.0; 202.0; 163.319;  28.000;   0.233; 54;
78.2649;-167.3028;2; 358.033; 206.227;1962.06.05 18:00:00;  -7.1;1012.2;   5.0; 158.0; 164.718;  28.250;   0.233; 54;
78.2723;-167.2526;2; 357.930; 206.137;1962.06.06 00:00:00;  -5.8;1010.9;   0.0;   0.0; 166.118;  28.500;   0.233; 54;
78.2797;-167.2023;2; 357.827; 206.046;1962.06.06 06:00:00;  -6.7;1007.0;   5.0; 338.0; 167.518;  28.750;   0.233; 54;
78.2870;-167.1520;2; 357.725; 205.955;1962.06.06 12:00:00;  -7.6;1002.4;   7.0; 315.0; 168.918;  29.000;   0.233; 54;
78.2878;-167.0655;2; 357.674; 205.770;1962.06.06 18:00:00;  -8.0; 998.2;   9.0; 292.0; 170.872;  29.250;   0.326; 87;
78.2886;-166.9790;2; 357.622; 205.586;1962.06.07 00:00:00;  -7.4; 998.5;   6.0; 248.0; 172.826;  29.500;   0.326; 88;
78.2893;-166.8925;2; 357.571; 205.401;1962.06.07 06:00:00;  -7.1;1000.7;   7.0; 202.0; 174.780;  29.750;   0.326; 88;
78.2900;-166.8060;2; 357.520; 205.216;1962.06.07 12:00:00;  -8.5;1002.8;   5.0; 158.0; 176.735;  30.000;   0.326; 88;
78.2963;-166.7890;2; 357.445; 205.195;1962.06.07 18:00:00;  -8.8;1003.2;   5.0; 112.0; 177.529;  30.250;   0.132; 29;
78.3025;-166.7720;2; 357.370; 205.174;1962.06.08 00:00:00;  -5.8;1002.6;   5.0;  90.0; 178.323;  30.500;   0.132; 29;
78.3088;-166.7550;2; 357.296; 205.153;1962.06.08 06:00:00;  -5.6;1002.0;   7.0;  90.0; 179.117;  30.750;   0.132; 29;
78.3150;-166.7379;2; 357.221; 205.133;1962.06.08 12:00:00;  -5.0;1001.8;   4.0;  45.0; 179.911;  31.000;   0.132; 29;
78.3213;-166.7209;2; 357.146; 205.112;1962.06.08 18:00:00;  -2.6;1001.9;   5.0; 112.0; 180.706;  31.250;   0.132; 29;
78.3275;-166.7038;2; 357.071; 205.091;1962.06.09 00:00:00;  -2.4;1003.0;   5.0; 180.0; 181.500;  31.500;   0.132; 29;
78.3338;-166.6867;2; 356.996; 205.070;1962.06.09 06:00:00;  -5.5;1004.5;   5.0; 158.0; 182.294;  31.750;   0.132; 29;
78.3400;-166.6696;2; 356.921; 205.049;1962.06.09 12:00:00;  -6.5;1005.0;   7.0; 112.0; 183.088;  32.000;   0.132; 29;
78.3463;-166.6525;2; 356.846; 205.028;1962.06.09 18:00:00;  -1.8;1003.1;  10.0; 112.0; 183.882;  32.250;   0.132; 29;
78.3525;-166.6353;2; 356.771; 205.007;1962.06.10 00:00:00;   1.4;1002.5;   9.0; 135.0; 184.676;  32.500;   0.132; 29;
78.3588;-166.6182;2; 356.696; 204.986;1962.06.10 06:00:00;   0.9;1003.1;  10.0; 158.0; 185.470;  32.750;   0.132; 29;
78.3650;-166.6010;2; 356.621; 204.965;1962.06.10 12:00:00;   0.6;1006.3;   8.0; 180.0; 186.264;  33.000;   0.132; 29;
78.4170;-166.5818;2; 356.060; 205.055;1962.06.10 18:00:00;   0.5;1009.1;   6.0; 180.0; 192.063;  33.250;   0.966;  4;
78.4690;-166.5623;2; 355.499; 205.145;1962.06.11 00:00:00;   0.7;1012.5;   6.0; 158.0; 197.861;  33.500;   0.966;  4;
78.5210;-166.5428;2; 354.938; 205.236;1962.06.11 06:00:00;   0.8;1014.9;   4.0; 135.0; 203.660;  33.750;   0.966;  4;
78.5730;-166.5230;2; 354.378; 205.326;1962.06.11 12:00:00;   0.7;1017.7;   5.0; 135.0; 209.458;  34.000;   0.966;  4;
78.5862;-166.4765;2; 354.214; 205.262;1962.06.11 18:00:00;   1.5;1019.0;   5.0; 112.0; 211.248;  34.250;   0.298; 35;
78.5994;-166.4299;2; 354.051; 205.198;1962.06.12 00:00:00;   1.5;1019.6;   6.0; 112.0; 213.038;  34.500;   0.298; 35;
78.6126;-166.3832;2; 353.888; 205.134;1962.06.12 06:00:00;   0.1;1020.4;   6.0; 158.0; 214.828;  34.750;   0.298; 35;
78.6258;-166.3364;2; 353.724; 205.070;1962.06.12 12:00:00;   0.4;1022.7;   5.0; 135.0; 216.619;  35.000;   0.298; 35;
78.6390;-166.2895;2; 353.561; 205.006;1962.06.12 18:00:00;   1.4;1021.8;   5.0; 112.0; 218.409;  35.250;   0.298; 35;
78.6521;-166.2425;2; 353.398; 204.943;1962.06.13 00:00:00;   1.0;1019.0;   6.0;  90.0; 220.199;  35.500;   0.298; 35;
78.6653;-166.1953;2; 353.235; 204.879;1962.06.13 06:00:00;   0.2;1016.2;   7.0; 112.0; 221.989;  35.750;   0.298; 35;
78.6785;-166.1481;2; 353.071; 204.815;1962.06.13 12:00:00;   0.3;1015.8;   4.0; 135.0; 223.779;  36.000;   0.298; 35;
78.6916;-166.1007;2; 352.908; 204.751;1962.06.13 18:00:00;   0.5;1015.5;   9.0; 112.0; 225.569;  36.250;   0.298; 35;
78.7047;-166.0533;2; 352.745; 204.687;1962.06.14 00:00:00;   0.8;1014.4;   3.0;  90.0; 227.360;  36.500;   0.298; 35;
78.7179;-166.0057;2; 352.581; 204.623;1962.06.14 06:00:00;   0.0;1013.2;   4.0; 112.0; 229.150;  36.750;   0.298; 35;
78.7310;-165.9580;2; 352.418; 204.559;1962.06.14 12:00:00;  -0.9;1013.0;   5.0; 112.0; 230.940;  37.000;   0.298; 35;
78.7560;-166.0017;2; 352.177; 204.715;1962.06.14 18:00:00;   0.4;1011.6;   5.0; 112.0; 233.878;  37.250;   0.490;341;
78.7810;-166.0456;2; 351.935; 204.871;1962.06.15 00:00:00;   0.5;1009.5;   6.0; 112.0; 236.817;  37.500;   0.490;341;
78.8060;-166.0897;2; 351.693; 205.028;1962.06.15 06:00:00;  -0.3;1009.5;   7.0; 180.0; 239.755;  37.750;   0.490;341;
78.8310;-166.1340;2; 351.451; 205.184;1962.06.15 12:00:00;  -0.1;1011.7;   5.0; 225.0; 242.693;  38.000;   0.490;341;
78.8463;-166.0886;2; 351.267; 205.131;1962.06.15 18:00:00;  -0.4;1011.3;   5.0; 135.0; 244.652;  38.250;   0.326; 30;
78.8615;-166.0430;2; 351.083; 205.078;1962.06.16 00:00:00;   0.0;1007.3;   6.0;  90.0; 246.613;  38.500;   0.327; 30;
78.8768;-165.9973;2; 350.898; 205.025;1962.06.16 06:00:00;   0.4;1000.5;  10.0; 135.0; 248.573;  38.750;   0.327; 30;
78.8921;-165.9515;2; 350.714; 204.971;1962.06.16 12:00:00;   0.3; 999.0;   7.0; 135.0; 250.533;  39.000;   0.327; 30;
78.9073;-165.9056;2; 350.529; 204.918;1962.06.16 18:00:00;  -0.9;1000.3;  12.0; 225.0; 252.493;  39.250;   0.327; 30;
78.9225;-165.8595;2; 350.345; 204.865;1962.06.17 00:00:00;  -0.3;1002.6;  10.0; 202.0; 254.452;  39.500;   0.327; 30;
78.9378;-165.8133;2; 350.161; 204.812;1962.06.17 06:00:00;  -1.2;1003.3;   8.0; 225.0; 256.413;  39.750;   0.327; 30;
78.9530;-165.7670;2; 349.976; 204.759;1962.06.17 12:00:00;  -0.2;1004.6;  10.0; 225.0; 258.373;  40.000;   0.327; 30;
78.9606;-165.7161;2; 349.870; 204.677;1962.06.17 18:00:00;   0.0;1006.6;  10.0; 225.0; 259.749;  40.250;   0.229; 52;
78.9682;-165.6652;2; 349.763; 204.595;1962.06.18 00:00:00;  -0.2;1010.1;   7.0; 225.0; 261.124;  40.500;   0.229; 52;
78.9759;-165.6142;2; 349.656; 204.512;1962.06.18 06:00:00;  -0.5;1012.2;  10.0; 225.0; 262.501;  40.750;   0.229; 52;
78.9835;-165.5631;2; 349.550; 204.430;1962.06.18 12:00:00;  -1.0;1014.2;   8.0; 225.0; 263.876;  41.000;   0.229; 52;
78.9911;-165.5120;2; 349.443; 204.348;1962.06.18 18:00:00;  -1.9;1016.3;   7.0; 225.0; 265.253;  41.250;   0.229; 52;
78.9987;-165.4608;2; 349.337; 204.265;1962.06.19 00:00:00;  -1.9;1017.4;   7.0; 225.0; 266.629;  41.500;   0.229; 52;
79.0062;-165.4095;2; 349.230; 204.183;1962.06.19 06:00:00;  -2.6;1016.5;   3.0; 180.0; 268.005;  41.750;   0.229; 52;
79.0138;-165.3581;2; 349.123; 204.101;1962.06.19 12:00:00;  -1.7;1014.2;   4.0;  90.0; 269.382;  42.000;   0.229; 52;
79.0214;-165.3067;2; 349.017; 204.018;1962.06.19 18:00:00;  -0.6;1011.2;   5.0;  45.0; 270.758;  42.250;   0.229; 52;
79.0289;-165.2552;2; 348.910; 203.936;1962.06.20 00:00:00;   0.1;1009.9;   3.0;  45.0; 272.134;  42.500;   0.229; 52;
79.0365;-165.2036;2; 348.803; 203.854;1962.06.20 06:00:00;   0.0;1009.9;   4.0;  22.0; 273.510;  42.750;   0.229; 52;
79.0440;-165.1520;2; 348.697; 203.772;1962.06.20 12:00:00;  -0.2;1012.2;   5.0; 360.0; 274.886;  43.000;   0.229; 53;
79.0545;-165.0777;2; 348.547; 203.653;1962.06.20 18:00:00;  -1.5;1014.5;   6.0; 338.0; 276.843;  43.250;   0.326; 53;
79.0650;-165.0033;2; 348.396; 203.534;1962.06.21 00:00:00;  -1.3;1017.8;   5.0; 315.0; 278.801;  43.500;   0.326; 53;
79.0755;-164.9287;2; 348.246; 203.415;1962.06.21 06:00:00;  -0.8;1018.8;   3.0; 292.0; 280.759;  43.750;   0.326; 53;
79.0860;-164.8540;2; 348.096; 203.296;1962.06.21 12:00:00;  -2.5;1020.2;   0.0;   0.0; 282.717;  44.000;   0.326; 54;
79.0856;-164.8317;2; 348.089; 203.250;1962.06.21 18:00:00;  -3.7;1021.1;   2.0; 315.0; 283.187;  44.250;   0.078; 96;
79.0852;-164.8095;2; 348.081; 203.205;1962.06.22 00:00:00;  -2.9;1022.4;   0.0;   0.0; 283.658;  44.500;   0.078; 95;
79.0848;-164.7872;2; 348.073; 203.159;1962.06.22 06:00:00;  -2.7;1023.0;   1.0; 292.0; 284.129;  44.750;   0.078; 96;
79.0844;-164.7650;2; 348.065; 203.114;1962.06.22 12:00:00;  -4.5;1022.9;   0.0;   0.0; 284.600;  45.000;   0.078; 96;
79.0839;-164.7427;2; 348.058; 203.068;1962.06.22 18:00:00;  -4.5;1022.6;   0.0;   0.0; 285.071;  45.250;   0.079; 96;
79.0835;-164.7205;2; 348.050; 203.023;1962.06.23 00:00:00;  -1.5;1021.8;   3.0; 158.0; 285.542;  45.500;   0.078; 96;
79.0831;-164.6982;2; 348.042; 202.978;1962.06.23 06:00:00;  -1.2;1020.2;   0.0;   0.0; 286.012;  45.750;   0.078; 96;
79.0827;-164.6760;2; 348.035; 202.932;1962.06.23 12:00:00;  -1.9;1019.3;   0.0;   0.0; 286.483;  46.000;   0.078; 96;
79.0823;-164.6537;2; 348.027; 202.887;1962.06.23 18:00:00;  -1.5;1017.9;   1.0; 292.0; 286.954;  46.250;   0.078; 96;
79.0818;-164.6315;2; 348.019; 202.841;1962.06.24 00:00:00;   0.4;1017.8;   4.0; 270.0; 287.425;  46.500;   0.078; 96;
79.0814;-164.6092;2; 348.011; 202.796;1962.06.24 06:00:00;   0.1;1017.4;   5.0; 270.0; 287.895;  46.750;   0.078; 96;
79.0810;-164.5870;2; 348.004; 202.750;1962.06.24 12:00:00;  -0.9;1016.6;   6.0; 248.0; 288.366;  47.000;   0.078; 96;
79.0808;-164.4847;2; 347.949; 202.547;1962.06.24 18:00:00;  -0.6;1014.7;   4.0; 270.0; 290.520;  47.250;   0.359; 91;
79.0806;-164.3825;2; 347.895; 202.343;1962.06.25 00:00:00;  -0.8;1013.9;   2.0; 292.0; 292.674;  47.500;   0.359; 91;
79.0803;-164.2802;2; 347.841; 202.139;1962.06.25 06:00:00;  -1.3;1013.1;   2.0; 292.0; 294.828;  47.750;   0.359; 91;
79.0800;-164.1780;2; 347.787; 201.935;1962.06.25 12:00:00;  -1.1;1013.2;   0.0;   0.0; 296.982;  48.000;   0.359; 91;
79.0793;-164.1614;2; 347.785; 201.901;1962.06.25 18:00:00;  -0.2;1013.2;   0.0;   0.0; 297.339;  48.250;   0.060;102;
79.0787;-164.1448;2; 347.782; 201.866;1962.06.26 00:00:00;   0.0;1013.4;   3.0; 202.0; 297.697;  48.500;   0.060;102;
79.0780;-164.1282;2; 347.780; 201.831;1962.06.26 06:00:00;  -0.6;1013.2;   3.0; 180.0; 298.054;  48.750;   0.060;102;
79.0773;-164.1116;2; 347.777; 201.796;1962.06.26 12:00:00;  -1.4;1013.2;   3.0; 180.0; 298.411;  49.000;   0.060;102;
79.0767;-164.0950;2; 347.775; 201.761;1962.06.26 18:00:00;  -1.2;1014.2;   5.0; 158.0; 298.768;  49.250;   0.060;102;
79.0760;-164.0785;2; 347.773; 201.726;1962.06.27 00:00:00;  -0.5;1015.9;   9.0; 158.0; 299.125;  49.500;   0.060;102;
79.0753;-164.0619;2; 347.770; 201.691;1962.06.27 06:00:00;  -0.2;1016.6;   6.0; 158.0; 299.483;  49.750;   0.060;102;
79.0747;-164.0453;2; 347.768; 201.656;1962.06.27 12:00:00;  -1.4;1018.3;   7.0; 135.0; 299.840;  50.000;   0.060;102;